This demonstration page uses our WeatherBlox Daily Observations layout. Learn more.

Left ArrowRight Arrow

38.80484, -77.04692

Hourly Observations for April 8, 2016

Temp ( °F °C ) Dew Point ( °F °C ) Humidity (%) Winds ( mph kmh ) Pressure ( in mb ) Visibility ( mi km ) Precip ( " mm )
12:52 am 00:52 Mostly Clear 48 8.9 31 -0.6 52 52 WNW 10 17 29.64 1004 10 16 0.00 0.00
1:52 am 01:52 Partly Cloudy 47 8.3 31 -0.6 54 54 WNW 8 13 29.65 1004 10 16 0.00 0.00
2:52 am 02:52 Partly Cloudy 46 7.8 30 -1.1 54 54 W 7 11 29.66 1004 10 16 0.00 0.00
3:52 am 03:52 Partly Cloudy 45 7.2 28 -2.2 52 52 WNW 10 17 29.66 1004 10 16 0.00 0.00
4:52 am 04:52 Mostly Clear 45 7.2 26 -3.3 48 48 WNW 9 15 29.66 1004 10 16 0.00 0.00
5:52 am 05:52 Mostly Cloudy 44 6.7 26 -3.3 49 49 W 9 15 29.67 1005 10 16 0.00 0.00
6:52 am 06:52 Mostly Cloudy 44 6.7 27 -2.8 51 51 W 7 11 29.70 1006 10 16 0.00 0.00
7:52 am 07:52 Mostly Cloudy 45 7.2 26 -3.3 48 48 WNW 16 26 29.72 1007 10 16 0.00 0.00
8:52 am 08:52 Mostly Cloudy 45 7.2 26 -3.3 48 48 WNW 13 20 29.74 1007 10 16 0.00 0.00
9:52 am 09:52 Mostly Cloudy 46 7.8 26 -3.3 46 46 WNW 16 26 29.75 1008 10 16 0.00 0.00
10:52 am 10:52 Mostly Cloudy 47 8.3 27 -2.8 46 46 WNW 18 30 29.77 1008 10 16 0.00 0.00
11:52 am 11:52 Mostly Cloudy 48 8.9 28 -2.2 46 46 WNW 14 22 29.78 1008 10 16 0.00 0.00
12:52 pm 12:52 Cloudy 48 8.9 28 -2.2 46 46 WNW 17 28 29.78 1009 10 16 0.00 0.00
1:52 pm 13:52 Cloudy 50 10 28 -2.2 43 43 W 16 26 29.78 1009 10 16 0.00 0.00
2:52 pm 14:52 Cloudy 52 11.1 28 -2.2 40 40 W 17 28 29.77 1008 10 16 0.00 0.00
3:52 pm 15:52 Mostly Cloudy 51 10.6 25 -3.9 36 36 W 18 30 29.78 1008 10 16 0.00 0.00
4:52 pm 16:52 Mostly Cloudy 53 11.7 25 -3.9 34 34 NW 10 17 29.77 1008 10 16 0.00 0.00
5:52 pm 17:52 Partly Cloudy 53 11.7 24 -4.4 32 32 NW 13 20 29.78 1009 10 16 0.00 0.00
6:52 pm 18:52 Partly Cloudy 52 11.1 22 -5.6 31 31 WNW 15 24 29.80 1009 10 16 0.00 0.00
7:52 pm 19:52 Mostly Clear 49 9.4 23 -5 36 36 NNW 13 20 29.81 1010 10 16 0.00 0.00
8:52 pm 20:52 Mostly Clear 47 8.3 24 -4.4 41 41 NNW 9 15 29.81 1010 10 16 0.00 0.00
9:40 pm 21:40 Mostly Cloudy 48 9 25 -4 40 40 N 5 7 29.83 1010 10 16 0.00 0.00
9:52 pm 21:52 Cloudy 48 8.9 24 -4.4 39 39 N 5 7 29.82 1010 10 16 0.00 0.00
10:52 pm 22:52 Cloudy 48 8.9 25 -3.9 41 41 Calm 29.80 1009 10 16 0.00 0.00
11:52 pm 23:52 Mostly Cloudy 46 7.8 28 -2.2 50 50 SSW 3 6 29.79 1009 10 16 0.00 0.00

Powered by AerisWeather